Flag Weather past 2 weeks in Saint John's, Antigua and Barbuda

Now
81 °F

Scattered clouds.


Feels Like: 85 °F
Forecast: N/A
Wind: 15 mph from East

Location: Vc Bird International Antigua Airport

Current Time: Nov 26, 2014 at 4:48:47 PM

Latest Report: Nov 26, 2014 at 4:00 PM


Visibility: N/A

Pressure: 29.95 "Hg

Humidity: 74%

Dew point: 72 °F

Location of Saint John'sLocation

Historic Weather in Saint John's — Graph

°F

Saint John's temperature yesterday

Maximum temperature yesterday: 84 °F (at 11:00 AM)
Minimum temperature yesterday: 75 °F (at 10:00 PM)
Average temperature yesterday: 81 °F

Past Weeks' High & Low Weather Summary

 TemperatureHumidityPressure
High86 °F (Nov 15, 10:00 AM)94% (Nov 14, 2:00 AM)30.07 "Hg (Nov 14, 2:00 AM)
Low73 °F (Nov 21, 5:00 AM)62% (Nov 20, 11:00 AM)29.86 "Hg (Nov 11, 3:00 PM)
Average80 °F78%29.97 "Hg
* Reported Nov 11 3:00 PM — Nov 26 3:00 PM, Saint John's, Weather by CustomWeather, © 2014

Note: Actual official high and low records may vary slightly from our data, if they occured in-between our weather recording intervals... More about our weather records

Advertising

Saint John's weather history for previous 24 hours

 ConditionsComfort  
Time TempWeatherWind HumidityBarometerVisibility
3:00 PM
Nov 26
79 °FSprinkles. Scattered clouds.15 mph79%29.95 "HgN/A
2:00 PM84 °FScattered clouds.13 mph70%29.95 "HgN/A
1:00 PM82 °FPassing clouds.16 mph70%29.98 "HgN/A
12:00 PM84 °FScattered clouds.14 mph70%30.01 "HgN/A
11:00 AM84 °FScattered clouds.14 mph70%30.01 "HgN/A
10:00 AM82 °FScattered clouds.13 mph74%30.01 "HgN/A
9:00 AM82 °FSprinkles. Scattered clouds.13 mph74%30.01 "HgN/A
8:00 AM81 °FScattered clouds.13 mph79%30.01 "HgN/A
7:00 AM79 °FScattered clouds.10 mph84%29.98 "HgN/A
6:00 AM79 °FPassing clouds.13 mph74%29.95 "HgN/A
5:00 AM79 °FPassing clouds.14 mph74%29.92 "HgN/A
4:00 AM79 °FPassing clouds.13 mph74%29.92 "HgN/A
2:00 AM81 °FPassing clouds.16 mph70%29.95 "HgN/A
1:00 AM79 °FPassing clouds.15 mph79%29.95 "HgN/A
12:00 AM79 °FPassing clouds.15 mph79%29.98 "HgN/A
11:00 PM
Nov 25
79 °FPassing clouds.13 mph79%30.01 "HgN/A
10:00 PM75 °FPassing clouds.8 mph78%30.01 "HgN/A
9:00 PM77 °FSprinkles. Passing clouds.21 mph89%30.01 "HgN/A
8:00 PM81 °FPassing clouds.15 mph70%30.01 "HgN/A
7:00 PM81 °FPassing clouds.15 mph70%29.98 "HgN/A
6:00 PM79 °FPassing clouds.15 mph74%29.98 "HgN/A
5:00 PM81 °FScattered clouds.13 mph74%29.98 "HgN/A
4:00 PM82 °FPartly sunny.16 mph70%29.98 "HgN/A
Weather by CustomWeather, © 2014

See weather overviewHow to use our weather pages